K6PKL-2 Weather Reports


Display with metric or nautical units.
time (UTC)temp
F
wind
direction
speed
MPH
gust
MPH
rain 1hr
in
rain 24hr
in
rain mn
in
humidity
%
barometer
mb
20260906194529 76 342 5.0 8.0 0.00 0.00 0.00 45 1018.8
20260906194129 76 265 3.0 9.0 0.00 0.00 0.00 46 1018.8
20260906193729 76 218 7.0 9.0 0.00 0.00 0.00 46 1018.9
20260906193328 75 0 2.0 7.0 0.00 0.00 0.00 46 1018.8
20260906192928 75 330 4.0 8.0 0.00 0.00 0.00 47 1018.9
20260906192528 75 207 8.0 8.0 0.00 0.00 0.00 48 1019.0
20260906192128 75 20 3.0 6.0 0.00 0.00 0.00 48 1019.0
20260906191728 74 202 6.0 6.0 0.00 0.00 0.00 48 1019.2
20260906191328 74 0 0.0 6.0 0.00 0.00 0.00 48 1019.1
20260906190928 74 355 3.0 5.0 0.00 0.00 0.00 49 1019.1
20260906190527 74 213 4.0 5.0 0.00 0.00 0.00 49 1019.1
20260906190127 74 312 3.0 10.0 0.00 0.00 0.00 48 1019.1
20260906185727 73 282 3.0 5.0 0.00 0.00 0.00 49 1019.2
20260906185327 73 247 2.0 5.0 0.00 0.00 0.00 51 1019.1
20260906184927 73 274 1.0 8.0 0.00 0.00 0.00 51 1019.2
20260906184527 72 0 8.0 8.0 0.00 0.00 0.00 52 1019.1
20260906184127 72 331 2.0 6.0 0.00 0.00 0.00 53 1019.1
20260906183323 72 270 0.0 6.0 0.00 0.00 0.00 54 1019.1
20260906182923 72 351 3.0 6.0 0.00 0.00 0.00 55 1019.0
20260906182523 71 285 1.0 6.0 0.00 0.00 0.00 55 1019.1
20260906182123 71 290 2.0 11.0 0.00 0.00 0.00 55 1019.2
20260906181723 71 247 1.0 5.0 0.00 0.00 0.00 55 1019.1
20260906181323 71 317 3.0 6.0 0.00 0.00 0.00 56 1019.2
20260906180922 70 247 5.0 5.0 0.00 0.00 0.00 56 1019.2
20260906180122 70 260 2.0 5.0 0.00 0.00 0.00 58 1019.2
20260906175722 70 230 4.0 6.0 0.00 0.00 0.00 58 1019.3
20260906175322 69 299 1.0 6.0 0.00 0.00 0.00 58 1019.2
20260906174922 69 199 5.0 7.0 0.00 0.00 0.00 58 1019.3
20260906174522 69 0 2.0 5.0 0.00 0.00 0.00 61 1019.3
20260906174122 69 234 2.0 4.0 0.00 0.00 0.00 61 1019.3
20260906173721 69 207 5.0 5.0 0.00 0.00 0.00 62 1019.3
20260906173321 68 279 3.0 5.0 0.00 0.00 0.00 62 1019.3
20260906172921 68 233 4.0 5.0 0.00 0.00 0.00 62 1019.3
20260906172521 68 315 1.0 5.0 0.00 0.00 0.00 63 1019.2
20260906172121 68 256 4.0 6.0 0.00 0.00 0.00 63 1019.3
20260906171721 67 13 3.0 5.0 0.00 0.00 0.00 63 1019.3
20260906171320 67 0 0.0 6.0 0.00 0.00 0.00 65 1019.2
20260906170920 67 333 4.0 4.0 0.00 0.00 0.00 64 1019.2
20260906170520 67 0 3.0 4.0 0.00 0.00 0.00 65 1019.2
20260906170120 66 310 3.0 6.0 0.00 0.00 0.00 66 1019.2
20260906165720 66 312 5.0 6.0 0.00 0.00 0.00 66 1019.2
20260906165320 66 315 2.0 4.0 0.00 0.00 0.00 67 1019.2
20260906164519 65 238 3.0 4.0 0.00 0.00 0.00 68 1019.3
20260906164119 65 308 1.0 5.0 0.00 0.00 0.00 69 1019.2
20260906162919 65 209 3.0 4.0 0.00 0.00 0.00 70 1019.3
20260906162119 64 215 3.0 3.0 0.00 0.00 0.00 71 1019.4
20260906161719 64 290 2.0 4.0 0.00 0.00 0.00 72 1019.4
20260906161318 64 315 1.0 6.0 0.00 0.00 0.00 72 1019.4
20260906160918 64 328 4.0 4.0 0.00 0.00 0.00 72 1019.6
20260906160518 63 315 1.0 4.0 0.00 0.00 0.00 73 1019.5
20260906160118 63 353 4.0 5.0 0.00 0.00 0.00 72 1019.5
20260906155718 63 357 2.0 6.0 0.00 0.00 0.00 73 1019.4
20260906154918 63 315 4.0 4.0 0.00 0.00 0.00 73 1019.5
20260906154518 63 24 4.0 4.0 0.00 0.00 0.00 74 1019.4
20260906154118 62 315 0.0 4.0 0.00 0.00 0.00 74 1019.4
20260906153718 62 342 4.0 6.0 0.00 0.00 0.00 75 1019.5
20260906153317 62 0 2.0 5.0 0.00 0.00 0.00 75 1019.4
20260906152917 62 330 2.0 4.0 0.00 0.00 0.00 75 1019.3
20260906152517 62 4 4.0 4.0 0.00 0.00 0.00 75 1019.3
20260906152117 62 315 3.0 6.0 0.00 0.00 0.00 76 1019.4
20260906151716 62 90 1.0 4.0 0.00 0.00 0.00 76 1019.3
20260906150916 61 0 3.0 4.0 0.00 0.00 0.00 76 1019.5
20260906150516 61 27 2.0 4.0 0.00 0.00 0.00 76 1019.4
20260906150116 61 335 4.0 5.0 0.00 0.00 0.00 76 1019.4
20260906145716 61 2 2.0 6.0 0.00 0.00 0.00 77 1019.5
20260906145316 61 351 3.0 6.0 0.00 0.00 0.00 76 1019.4
20260906144915 61 301 5.0 5.0 0.00 0.00 0.00 77 1019.4
20260906144515 61 344 2.0 5.0 0.00 0.00 0.00 77 1019.3
20260906144115 61 312 3.0 4.0 0.00 0.00 0.00 76 1019.3
20260906143715 61 335 3.0 4.0 0.00 0.00 0.00 76 1019.3
20260906143315 61 324 4.0 4.0 0.00 0.00 0.00 77 1019.3
20260906142915 61 337 2.0 4.0 0.00 0.00 0.00 77 1019.3
20260906142515 60 315 3.0 4.0 0.00 0.00 0.00 77 1019.2
20260906142114 60 312 4.0 4.0 0.00 0.00 0.00 77 1019.2
20260906141714 60 2 3.0 5.0 0.00 0.00 0.00 76 1019.2
20260906141314 60 0 2.0 4.0 0.00 0.00 0.00 76 1019.2
20260906140114 60 346 4.0 4.0 0.00 0.00 0.00 76 1019.0
20260906135714 60 10 3.0 4.0 0.00 0.00 0.00 75 1019.1
20260906135313 60 310 4.0 5.0 0.00 0.00 0.00 75 1018.9
20260906134914 60 310 2.0 5.0 0.00 0.00 0.00 74 1018.8
20260906134513 60 292 2.0 4.0 0.00 0.00 0.00 74 1018.8
20260906134113 60 239 0.0 4.0 0.00 0.00 0.00 74 1018.7
20260906133713 60 279 1.0 4.0 0.00 0.00 0.00 74 1018.7
20260906133313 60 348 3.0 7.0 0.00 0.00 0.00 73 1018.7
20260906132913 60 326 3.0 3.0 0.00 0.00 0.00 72 1018.6
20260906132513 61 270 1.0 4.0 0.00 0.00 0.00 72 1018.7
20260906132112 61 270 2.0 2.0 0.00 0.00 0.00 72 1018.6
20260906131712 61 357 2.0 3.0 0.00 0.00 0.00 71 1018.5
20260906130912 61 315 2.0 2.0 0.00 0.00 0.00 70 1018.6
20260906130512 61 0 1.0 2.0 0.00 0.00 0.00 69 1018.5
20260906130112 61 0 0.0 1.0 0.00 0.00 0.00 69 1018.5
20260906125711 61 0 0.0 2.0 0.00 0.00 0.00 69 1018.4
20260906125311 61 0 0.0 0.0 0.00 0.00 0.00 69 1018.4
20260906124911 61 315 1.0 2.0 0.00 0.00 0.00 69 1018.4
20260906124511 61 351 1.0 3.0 0.00 0.00 0.00 69 1018.3
20260906124111 62 0 3.0 4.0 0.00 0.00 0.00 69 1018.3
20260906123711 62 315 0.0 4.0 0.00 0.00 0.00 68 1018.2
20260906123311 62 9 2.0 3.0 0.00 0.00 0.00 67 1018.3
20260906122910 62 45 0.0 3.0 0.00 0.00 0.00 67 1018.3
20260906122510 62 0 0.0 1.0 0.00 0.00 0.00 66 1018.3
20260906122110 62 0 0.0 1.0 0.00 0.00 0.00 66 1018.2
20260906121710 62 0 0.0 2.0 0.00 0.00 0.00 66 1018.2
20260906121310 62 0 1.0 1.0 0.00 0.00 0.00 65 1018.3
20260906120910 62 0 1.0 2.0 0.00 0.00 0.00 65 1018.2
20260906120109 62 45 0.0 0.0 0.00 0.00 0.00 63 1018.3
20260906115709 62 45 0.0 0.0 0.00 0.00 0.00 62 1018.2
20260906115309 62 45 0.0 0.0 0.00 0.00 0.00 62 1018.3
20260906114909 62 45 0.0 1.0 0.00 0.00 0.00 62 1018.2
20260906114109 63 45 0.0 0.0 0.00 0.00 0.00 63 1018.3
20260906113709 63 45 0.0 0.0 0.00 0.00 0.00 63 1018.1
20260906112908 63 45 0.0 0.0 0.00 0.00 0.00 63 1018.2
20260906112509 63 45 0.0 0.0 0.00 0.00 0.00 63 1018.2
20260906112108 63 45 0.0 0.0 0.00 0.00 0.00 63 1018.2
20260906111708 63 45 0.0 0.0 0.00 0.00 0.00 63 1018.1
20260906111308 63 225 0.0 0.0 0.00 0.00 0.00 63 1018.1
20260906110908 63 225 0.0 0.0 0.00 0.00 0.00 63 1018.0
20260906110107 63 225 0.0 0.0 0.00 0.00 0.00 63 1017.9
20260906105707 63 0 0.0 0.0 0.00 0.00 0.00 63 1018.0
20260906105307 63 0 0.0 1.0 0.00 0.00 0.00 64 1017.9
20260906104907 63 0 1.0 1.0 0.00 0.00 0.00 63 1018.0
20260906104507 63 45 0.0 0.0 0.00 0.00 0.00 63 1018.0
20260906104107 63 54 1.0 2.0 0.00 0.00 0.00 63 1018.0
20260906103707 63 45 2.0 2.0 0.00 0.00 0.00 63 1018.0
20260906102906 63 20 1.0 2.0 0.00 0.00 0.00 63 1018.1
20260906102106 63 70 1.0 2.0 0.00 0.00 0.00 63 1018.2
20260906101706 63 0 0.0 0.0 0.00 0.00 0.00 64 1018.1
20260906101306 64 0 0.0 1.0 0.00 0.00 0.00 64 1018.2
20260906100905 64 0 0.0 1.0 0.00 0.00 0.00 64 1018.1
20260906100105 64 0 1.0 2.0 0.00 0.00 0.00 64 1018.2
20260906095705 64 45 0.0 1.0 0.00 0.00 0.00 64 1018.3
20260906095306 64 0 0.0 1.0 0.00 0.00 0.00 64 1018.2
20260906094905 64 0 0.0 1.0 0.00 0.00 0.00 64 1018.2
20260906094505 64 0 1.0 3.0 0.00 0.00 0.00 64 1018.2
20260906094104 64 0 1.0 2.0 0.00 0.00 0.00 64 1018.1
20260906093704 64 0 1.0 2.0 0.00 0.00 0.00 62 1018.1
20260906093304 64 27 1.0 3.0 0.00 0.00 0.00 63 1018.3
20260906092904 64 22 1.0 2.0 0.00 0.00 0.00 63 1018.3
20260906092504 64 45 1.0 2.0 0.00 0.00 0.00 63 1018.3
20260906092104 64 31 1.0 3.0 0.00 0.00 0.00 63 1018.2
20260906091704 65 337 2.0 3.0 0.00 0.00 0.00 63 1018.3
20260906091303 65 0 2.0 3.0 0.00 0.00 0.00 63 1018.4
20260906090903 65 0 2.0 3.0 0.00 0.00 0.00 63 1018.3
20260906090503 65 315 2.0 2.0 0.00 0.00 0.00 63 1018.3
20260906090103 65 315 2.0 2.0 0.00 0.00 0.00 62 1018.3
20260906085306 65 11 1.0 2.0 0.00 0.00 0.00 62 1018.4
20260906084903 65 0 1.0 2.0 0.00 0.00 0.00 62 1018.5
20260906084503 65 45 1.0 2.0 0.00 0.00 0.00 62 1018.5
20260906084102 65 315 1.0 2.0 0.00 0.00 0.00 62 1018.6
20260906083702 65 0 1.0 1.0 0.00 0.00 0.00 62 1018.5
20260906083302 66 0 1.0 2.0 0.00 0.00 0.00 61 1018.6
20260906082902 66 315 2.0 2.0 0.00 0.00 0.00 62 1018.6
20260906082502 66 315 0.0 2.0 0.00 0.00 0.00 62 1018.5
20260906081701 66 324 2.0 2.0 0.00 0.00 0.00 61 1018.6
20260906081301 66 0 2.0 2.0 0.00 0.00 0.00 61 1018.7
20260906080901 66 0 2.0 2.0 0.00 0.00 0.00 61 1018.5
20260906080501 66 45 2.0 2.0 0.00 0.00 0.00 60 1018.5
20260906075701 66 0 1.0 2.0 0.00 0.00 0.00 61 1018.4
20260906075301 67 315 1.0 4.0 0.00 0.00 0.00 61 1018.4
20260906074901 67 0 1.0 2.0 0.00 0.00 0.00 61 1018.4
20260906074500 67 45 3.0 3.0 0.00 0.00 0.00 59 1018.4
20260906074100 67 31 1.0 3.0 0.00 0.00 0.00 60 1018.4
20260906073700 67 45 1.0 3.0 0.00 0.00 0.00 60 1018.4
20260906073300 67 0 2.0 4.0 0.00 0.00 0.00 60 1018.4
20260906072900 67 0 0.0 4.0 0.00 0.00 0.00 60 1018.2
20260906072500 67 270 1.0 3.0 0.00 0.00 0.00 59 1018.3
20260906072100 67 274 1.0 2.0 0.00 0.00 0.00 61 1018.3
20260906071700 67 0 2.0 3.0 0.00 0.00 0.00 60 1018.4
20260906071259 67 353 4.0 4.0 0.00 0.00 0.00 59 1018.3
20260906070859 67 9 2.0 4.0 0.00 0.00 0.00 59 1018.4
20260906070459 67 0 2.0 3.0 0.00 0.00 0.00 60 1018.4
20260906070059 67 0 2.0 4.0 0.00 0.00 0.00 59 1018.4
20260906065659 67 339 3.0 4.0 0.00 0.00 0.00 59 1018.2
20260906065258 67 0 4.0 4.0 0.00 0.00 0.00 59 1018.3
20260906064858 68 0 2.0 5.0 0.00 0.00 0.00 59 1018.3
20260906064458 68 308 2.0 3.0 0.00 0.00 0.00 58 1018.3
20260906064058 68 0 1.0 4.0 0.00 0.00 0.00 58 1018.3
20260906063658 68 0 3.0 6.0 0.00 0.00 0.00 58 1018.2
20260906063258 68 321 6.0 6.0 0.00 0.00 0.00 58 1018.3
20260906062458 69 315 1.0 5.0 0.00 0.00 0.00 56 1018.3
20260906062057 69 315 1.0 3.0 0.00 0.00 0.00 55 1018.3
20260906061657 69 13 1.0 7.0 0.00 0.00 0.00 54 1018.3
20260906061257 69 2 4.0 11.0 0.00 0.00 0.00 54 1018.3
20260906060457 69 324 3.0 3.0 0.00 0.00 0.00 54 1018.3
20260906060057 69 315 1.0 4.0 0.00 0.00 0.00 54 1018.2
20260906055656 69 317 2.0 3.0 0.00 0.00 0.00 53 1018.2
20260906055256 69 297 3.0 4.0 0.00 0.00 0.00 54 1018.2
20260906054856 70 315 1.0 3.0 0.00 0.00 0.00 53 1018.3
20260906053656 70 301 2.0 5.0 0.00 0.00 0.00 53 1018.3
20260906053256 70 301 3.0 4.0 0.00 0.00 0.00 52 1018.4
20260906052855 70 2 1.0 7.0 0.00 0.00 0.00 51 1018.4
20260906052455 70 0 3.0 5.0 0.00 0.00 0.00 51 1018.4
20260906051654 71 308 3.0 3.0 0.00 0.00 0.00 51 1018.3
20260906050854 71 0 2.0 4.0 0.00 0.00 0.00 51 1018.3
20260906045651 71 237 7.0 7.0 0.00 0.00 0.00 50 1018.2
20260906045250 72 270 1.0 5.0 0.00 0.00 0.00 49 1018.3
20260906044850 72 238 4.0 6.0 0.00 0.00 0.00 49 1018.3
20260906044450 72 238 2.0 4.0 0.00 0.00 0.00 49 1018.3
20260906044050 72 270 1.0 4.0 0.00 0.00 0.00 49 1018.3
20260906043650 72 270 2.0 7.0 0.00 0.00 0.00 48 1018.3
20260906043251 72 315 0.0 4.0 0.00 0.00 0.00 48 1018.3
20260906042850 73 231 2.0 4.0 0.00 0.00 0.00 48 1018.3
20260906042450 73 225 1.0 4.0 0.00 0.00 0.00 48 1018.3
20260906042049 73 297 1.0 6.0 0.00 0.00 0.00 48 1018.2
20260906041649 73 225 3.0 5.0 0.00 0.00 0.00 47 1018.1
20260906041249 73 274 3.0 4.0 0.00 0.00 0.00 48 1018.1
20260906040849 74 256 3.0 5.0 0.00 0.00 0.00 47 1018.0
20260906040449 74 0 1.0 4.0 0.00 0.00 0.00 47 1017.9
20260906040049 74 340 2.0 6.0 0.00 0.00 0.00 47 1018.0
20260906035649 74 315 6.0 6.0 0.00 0.00 0.00 47 1018.0
20260906035248 75 270 4.0 8.0 0.00 0.00 0.00 46 1018.1
20260906034848 75 326 3.0 4.0 0.00 0.00 0.00 46 1018.0
20260906034448 75 270 2.0 5.0 0.00 0.00 0.00 46 1017.9
20260906034048 76 292 1.0 6.0 0.00 0.00 0.00 46 1018.1
20260906033648 76 234 3.0 6.0 0.00 0.00 0.00 46 1017.9
20260906033248 76 292 3.0 6.0 0.00 0.00 0.00 46 1017.8
20260906032848 76 270 6.0 6.0 0.00 0.00 0.00 46 1017.8
20260906032447 76 235 3.0 6.0 0.00 0.00 0.00 46 1017.8
20260906032047 77 315 2.0 4.0 0.00 0.00 0.00 47 1017.7
20260906031647 77 225 1.0 4.0 0.00 0.00 0.00 46 1017.6
20260906031247 77 225 3.0 4.0 0.00 0.00 0.00 46 1017.6
20260906030847 78 315 0.0 4.0 0.00 0.00 0.00 46 1017.5
20260906030447 78 328 3.0 8.0 0.00 0.00 0.00 45 1017.5
20260906030047 78 252 2.0 5.0 0.00 0.00 0.00 45 1017.5
20260906025646 78 301 3.0 8.0 0.00 0.00 0.00 44 1017.5
20260906025246 79 351 8.0 8.0 0.00 0.00 0.00 44 1017.5
20260906024846 79 328 4.0 5.0 0.00 0.00 0.00 44 1017.4
20260906024446 79 315 1.0 4.0 0.00 0.00 0.00 43 1017.4
20260906023646 80 315 2.0 7.0 0.00 0.00 0.00 42 1017.4
20260906023246 80 9 7.0 7.0 0.00 0.00 0.00 41 1017.4
20260906022845 81 317 3.0 7.0 0.00 0.00 0.00 41 1017.4
20260906022445 81 0 3.0 6.0 0.00 0.00 0.00 40 1017.4
20260906022045 81 0 2.0 4.0 0.00 0.00 0.00 39 1017.4
20260906021645 81 315 1.0 5.0 0.00 0.00 0.00 39 1017.3
20260906021245 82 0 2.0 4.0 0.00 0.00 0.00 39 1017.3
20260906020445 82 354 2.0 4.0 0.00 0.00 0.00 37 1017.3
20260906020044 83 330 2.0 6.0 0.00 0.00 0.00 37 1017.4
20260906015644 83 315 4.0 5.0 0.00 0.00 0.00 37 1017.3
20260906014844 83 310 5.0 5.0 0.00 0.00 0.00 37 1017.3
20260906014444 84 327 5.0 6.0 0.00 0.00 0.00 37 1017.3
20260906014044 84 328 3.0 7.0 0.00 0.00 0.00 38 1017.2
20260906013644 84 294 4.0 4.0 0.00 0.00 0.00 38 1017.2
20260906013243 84 281 3.0 9.0 0.00 0.00 0.00 38 1017.3
20260906012843 85 357 3.0 7.0 0.00 0.00 0.00 39 1017.2
20260906012443 85 351 4.0 7.0 0.00 0.00 0.00 38 1017.4
20260906012043 85 337 4.0 6.0 0.00 0.00 0.00 39 1017.3
20260906011643 85 274 2.0 9.0 0.00 0.00 0.00 38 1017.4
20260906010843 85 256 3.0 6.0 0.00 0.00 0.00 37 1017.3
20260906010042 85 37 1.0 6.0 0.00 0.00 0.00 38 1017.3
20260906005642 85 306 3.0 6.0 0.00 0.00 0.00 38 1017.2
20260906005242 85 337 1.0 5.0 0.00 0.00 0.00 37 1017.2
20260906004842 85 315 0.0 4.0 0.00 0.00 0.00 38 1017.2
20260906004042 85 40 3.0 4.0 0.00 0.00 0.00 39 1017.2
20260906003641 85 355 1.0 6.0 0.00 0.00 0.00 39 1017.3
20260906003242 85 13 3.0 3.0 0.00 0.00 0.00 39 1017.1
20260906002841 86 18 2.0 6.0 0.00 0.00 0.00 38 1017.2
20260906002441 85 4 5.0 6.0 0.00 0.00 0.00 37 1017.2
20260906002041 85 256 1.0 3.0 0.00 0.00 0.00 39 1017.2
20260906001641 85 324 3.0 4.0 0.00 0.00 0.00 37 1017.2
20260906001241 85 283 1.0 4.0 0.00 0.00 0.00 39 1017.2
20260906000440 85 209 2.0 3.0 0.00 0.00 0.00 39 1017.2
20260906000040 85 236 2.0 8.0 0.00 0.00 0.00 39 1017.3
20260905235640 85 225 7.0 8.0 0.00 0.00 0.00 39 1017.2
20260905235240 85 319 2.0 5.0 0.00 0.00 0.00 40 1017.2
20260905234840 85 40 1.0 4.0 0.00 0.00 0.00 39 1017.2
20260905234039 85 320 2.0 5.0 0.00 0.00 0.00 40 1017.1
20260905233239 85 355 6.0 8.0 0.00 0.00 0.00 40 1017.2
20260905232839 85 310 3.0 6.0 0.00 0.00 0.00 41 1017.3
20260905232039 84 40 3.0 6.0 0.00 0.00 0.00 42 1017.3
20260905231639 84 222 4.0 4.0 0.00 0.00 0.00 42 1017.3
20260905230838 84 337 0.0 4.0 0.00 0.00 0.00 41 1017.3
20260905230439 84 6 4.0 5.0 0.00 0.00 0.00 41 1017.5
20260905230038 83 310 4.0 8.0 0.00 0.00 0.00 42 1017.5
20260905224838 83 195 12.0 12.0 0.00 0.00 0.00 43 1017.4
20260905224037 83 286 0.0 5.0 0.00 0.00 0.00 43 1017.8
20260905223637 82 45 0.0 3.0 0.00 0.00 0.00 44 1017.9
20260905223237 82 344 1.0 7.0 0.00 0.00 0.00 44 1017.8
20260905222838 82 315 5.0 5.0 0.00 0.00 0.00 44 1017.9
20260905222437 82 339 4.0 4.0 0.00 0.00 0.00 45 1017.9
20260905222037 81 191 1.0 6.0 0.00 0.00 0.00 44 1017.9
20260905221636 81 306 2.0 6.0 0.00 0.00 0.00 44 1018.0
20260905221236 81 20 4.0 6.0 0.00 0.00 0.00 45 1018.0
20260905220836 81 335 5.0 5.0 0.00 0.00 0.00 45 1018.1
20260905220436 81 353 5.0 5.0 0.00 0.00 0.00 45 1018.1
20260905220036 81 297 0.0 4.0 0.00 0.00 0.00 46 1018.1
20260905215637 81 45 2.0 6.0 0.00 0.00 0.00 46 1018.2
20260905214435 80 40 2.0 4.0 0.00 0.00 0.00 47 1018.3
20260905214035 80 238 4.0 6.0 0.00 0.00 0.00 46 1018.4
20260905213635 80 112 1.0 6.0 0.00 0.00 0.00 47 1018.4
20260905213235 80 225 6.0 6.0 0.00 0.00 0.00 47 1018.5
20260905212836 80 200 2.0 5.0 0.00 0.00 0.00 47 1018.5
20260905212435 79 270 2.0 7.0 0.00 0.00 0.00 48 1018.4
20260905212034 79 22 2.0 6.0 0.00 0.00 0.00 49 1018.4
20260905211634 79 225 4.0 5.0 0.00 0.00 0.00 49 1018.4
20260905211235 79 240 2.0 6.0 0.00 0.00 0.00 49 1018.6
20260905210834 79 346 4.0 4.0 0.00 0.00 0.00 48 1018.6
20260905210434 79 351 4.0 7.0 0.00 0.00 0.00 49 1018.6
20260905210034 78 317 6.0 6.0 0.00 0.00 0.00 49 1018.6
20260905205634 78 353 5.0 6.0 0.00 0.00 0.00 49 1018.6
20260905205234 78 346 4.0 6.0 0.00 0.00 0.00 49 1018.6
20260905204834 78 288 3.0 6.0 0.00 0.00 0.00 50 1018.7
20260905204433 78 31 2.0 5.0 0.00 0.00 0.00 50 1018.6
20260905204034 77 321 6.0 7.0 0.00 0.00 0.00 50 1018.7
20260905203634 77 47 4.0 7.0 0.00 0.00 0.00 51 1018.6
20260905202833 77 340 3.0 6.0 0.00 0.00 0.00 52 1018.8
20260905202433 76 315 1.0 5.0 0.00 0.00 0.00 53 1018.8
20260905202033 76 355 2.0 4.0 0.00 0.00 0.00 54 1018.6
20260905201233 76 342 4.0 6.0 0.00 0.00 0.00 53 1018.7
20260905200833 76 45 0.0 4.0 0.00 0.00 0.00 53 1018.8
20260905200029 75 299 5.0 5.0 0.00 0.00 0.00 54 1018.9
20260905195229 75 213 4.0 6.0 0.00 0.00 0.00 56 1019.0